TimeCST,TemperatureF,Dew PointF,Humidity,Sea Level PressureIn,VisibilityMPH,Wind Direction,Wind SpeedMPH,Gust SpeedMPH,PrecipitationIn,Events,Conditions,WindDirDegrees,DateUTC
12:21 AM,32.0,32.0,100,30.00,2.0,SE,4.6,-,0.00,Snow,Light Snow,140,2013-03-02 06:21:00
12:36 AM,32.0,32.0,100,30.00,2.5,SSE,6.9,-,0.00,Snow,Light Snow,160,2013-03-02 06:36:00
12:56 AM,32.0,32.0,100,30.04,2.5,SSE,6.9,-,0.00,Snow,Light Snow,150,2013-03-02 06:56:00
1:17 AM,32.0,32.0,100,30.00,4.0,SSE,5.8,-,0.01,Snow,Light Snow,150,2013-03-02 07:17:00
1:25 AM,32.0,32.0,100,30.00,4.0,SSE,5.8,-,0.01,Snow,Light Snow,150,2013-03-02 07:25:00
1:56 AM,32.0,32.0,100,30.03,3.0,SE,4.6,-,0.01,Snow,Light Snow,140,2013-03-02 07:56:00
2:19 AM,32.0,32.0,100,29.98,3.0,SE,5.8,-,0.00,Snow,Light Snow,140,2013-03-02 08:19:00
2:28 AM,32.0,32.0,100,29.98,2.5,SE,5.8,-,0.00,Snow,Light Snow,140,2013-03-02 08:28:00
2:39 AM,32.0,32.0,100,29.98,3.0,SE,5.8,-,0.00,,Overcast,130,2013-03-02 08:39:00
2:56 AM,32.0,32.0,100,30.02,5.0,ESE,8.1,-,0.00,,Overcast,120,2013-03-02 08:56:00
3:25 AM,32.0,32.0,100,29.98,4.0,ESE,5.8,-,0.00,,Overcast,120,2013-03-02 09:25:00
3:44 AM,32.0,32.0,100,29.98,3.0,East,6.9,-,0.00,Snow,Light Snow,100,2013-03-02 09:44:00
3:56 AM,31.1,31.1,100,30.02,2.5,ESE,8.1,-,0.00,Snow,Light Snow,120,2013-03-02 09:56:00
4:04 AM,30.2,30.2,100,29.98,3.0,ESE,6.9,-,0.00,Snow,Light Snow,120,2013-03-02 10:04:00
4:17 AM,30.2,30.2,100,29.98,2.0,ESE,6.9,-,0.00,Snow,Light Snow,120,2013-03-02 10:17:00
4:27 AM,30.2,30.2,100,29.98,2.0,ESE,8.1,-,0.00,Snow,Light Snow,120,2013-03-02 10:27:00
4:33 AM,30.2,30.2,100,29.98,1.8,ESE,5.8,-,0.00,Snow,Light Snow,120,2013-03-02 10:33:00
4:39 AM,30.2,30.2,100,29.98,2.0,ESE,6.9,-,0.00,Snow,Light Snow,120,2013-03-02 10:39:00
4:56 AM,31.1,31.1,100,30.03,2.0,ESE,5.8,-,0.00,Snow,Light Snow,120,2013-03-02 10:56:00
5:19 AM,30.2,30.2,100,29.98,2.0,SSE,5.8,-,0.01,Snow,Light Snow,160,2013-03-02 11:19:00
5:23 AM,30.2,30.2,100,29.99,1.8,South,6.9,-,0.01,Snow,Light Snow,180,2013-03-02 11:23:00
5:28 AM,30.2,30.2,100,29.99,2.5,SSW,6.9,-,0.01,Snow,Light Snow,200,2013-03-02 11:28:00
5:34 AM,30.2,30.2,100,29.99,9.0,SSW,8.1,-,0.01,Snow,Light Snow,200,2013-03-02 11:34:00
6:22 AM,30.2,28.4,93,30.01,2.0,SW,9.2,-,0.00,Snow,Light Snow,220,2013-03-02 12:22:00
6:42 AM,30.2,28.4,93,30.01,3.0,SSW,8.1,-,0.00,Snow,Light Snow,210,2013-03-02 12:42:00
6:56 AM,30.0,28.0,92,30.06,4.0,SSW,8.1,-,0.00,Snow,Light Snow,210,2013-03-02 12:56:00
7:20 AM,30.2,28.4,93,30.02,2.5,SSW,6.9,-,0.00,Snow,Light Snow,200,2013-03-02 13:20:00
7:32 AM,30.2,28.4,93,30.02,1.2,SSW,6.9,-,0.00,Snow,Light Snow,200,2013-03-02 13:32:00
7:56 AM,30.0,29.1,96,30.07,1.2,South,11.5,-,0.00,Snow,Light Snow,190,2013-03-02 13:56:00
8:11 AM,30.2,28.4,93,30.03,1.8,South,9.2,-,0.00,Snow,Light Snow,190,2013-03-02 14:11:00
8:20 AM,30.2,28.4,93,30.03,2.5,South,9.2,-,0.00,Snow,Light Snow,180,2013-03-02 14:20:00
8:35 AM,30.2,28.4,93,30.04,4.0,South,9.2,-,0.00,Snow,Light Snow,190,2013-03-02 14:35:00
8:47 AM,30.2,28.4,93,30.04,3.0,SSW,8.1,-,0.00,Snow,Light Snow,200,2013-03-02 14:47:00
8:56 AM,30.0,28.0,92,30.09,2.5,South,6.9,-,0.00,Snow,Light Snow,190,2013-03-02 14:56:00
9:04 AM,30.2,26.6,86,30.04,1.5,South,10.4,-,0.00,Snow,Light Snow,180,2013-03-02 15:04:00
9:09 AM,30.2,26.6,86,30.04,1.0,South,8.1,-,0.00,Snow,Light Snow,190,2013-03-02 15:09:00
9:22 AM,30.2,26.6,86,30.04,1.5,South,8.1,-,0.00,Snow,Light Snow,190,2013-03-02 15:22:00
9:31 AM,30.2,26.6,86,30.04,3.0,SSW,5.8,-,0.00,Snow,Light Snow,200,2013-03-02 15:31:00
9:56 AM,31.1,28.0,88,30.09,9.0,SSE,5.8,-,0.00,Snow,Light Snow,160,2013-03-02 15:56:00
11:30 AM,32.0,26.6,80,30.05,10.0,SSE,10.4,-,0.00,,Overcast,160,2013-03-02 17:30:00
11:41 AM,32.0,26.6,80,30.05,10.0,South,6.9,-,0.00,,Overcast,170,2013-03-02 17:41:00
11:56 AM,32.0,26.1,79,30.09,10.0,South,8.1,-,0.00,,Overcast,170,2013-03-02 17:56:00
12:47 PM,32.0,24.8,75,30.04,10.0,SE,11.5,-,0.00,,Overcast,130,2013-03-02 18:47:00
12:56 PM,32.0,25.2,76,30.08,10.0,SE,11.5,-,0.00,,Overcast,130,2013-03-02 18:56:00
1:45 PM,32.0,24.8,75,30.04,10.0,South,12.7,-,0.00,Rain,Light Rain,180,2013-03-02 19:45:00
1:56 PM,31.1,24.1,75,30.08,10.0,South,13.8,-,0.00,Snow,Light Snow,170,2013-03-02 19:56:00
2:34 PM,30.2,23.0,75,30.04,10.0,SSE,9.2,18.4,0.00,,Overcast,150,2013-03-02 20:34:00
2:56 PM,32.0,23.0,69,30.09,10.0,SSE,12.7,-,0.00,,Overcast,150,2013-03-02 20:56:00
3:56 PM,31.1,22.1,69,30.10,10.0,SSE,9.2,-,0.00,,Overcast,160,2013-03-02 21:56:00
4:56 PM,30.0,23.0,75,30.12,10.0,SSE,5.8,-,0.00,,Overcast,160,2013-03-02 22:56:00
5:40 PM,28.4,24.8,86,30.08,8.0,South,5.8,-,0.00,Snow,Light Snow,170,2013-03-02 23:40:00
5:56 PM,29.1,25.2,85,30.14,5.0,SSE,4.6,-,0.00,Snow,Light Snow,160,2013-03-02 23:56:00
6:18 PM,28.4,24.8,86,30.09,4.0,South,8.1,-,0.00,Snow,Light Snow,180,2013-03-03 00:18:00
6:56 PM,29.1,25.2,85,30.15,9.0,SSE,5.8,-,0.00,Snow,Light Snow,160,2013-03-03 00:56:00
7:56 PM,28.0,25.2,89,30.15,4.0,SSE,8.1,-,0.00,Snow,Light Snow,160,2013-03-03 01:56:00
8:56 PM,28.0,25.2,89,30.16,8.0,SSE,5.8,-,0.00,Snow,Light Snow,160,2013-03-03 02:56:00
9:56 PM,28.0,23.0,81,30.15,10.0,South,6.9,-,0.00,,Overcast,170,2013-03-03 03:56:00
10:10 PM,28.4,23.0,80,30.10,10.0,SSE,5.8,-,N/A,,Overcast,160,2013-03-03 04:10:00
10:56 PM,27.1,22.1,81,30.15,10.0,South,9.2,-,N/A,,Overcast,170,2013-03-03 04:56:00
11:48 PM,26.6,23.0,86,30.10,9.0,SSW,4.6,-,0.00,,Overcast,200,2013-03-03 05:48:00
11:56 PM,27.1,22.1,81,30.15,10.0,SSW,5.8,-,0.00,,Overcast,200,2013-03-03 05:56:00